When you browse on this site, cookies collect data to enhance your experience and personalize the content and advertising you see.
Visit our Privacy Policy to learn more. By continuing to use the site, you agree to this use of cookies and data.
  • In Deutschland
  • Länderverzeichnis
  • Für 7 Tage
  • Wassertemperatur
  • Wetterkarte
  • Widgets
  • user-avatar
    Anmelden

    Stündliche Wetter Kolno

    Heute, 2 Juni, Dienstag

    Zeit Temperatur Niederschläge Wind Luftdruck Luftfeuchtigkeit
    00:00 +9°C° 0.7 mm 2 m/S 752 mmHg 89%
    01:00 +9°C° 0.7 mm 2 m/S 752 mmHg 91%
    02:00 +8°C° 0 mm 2 m/S 751 mmHg 92%
    03:00 +8°C° 0 mm 3 m/S 751 mmHg 92%
    04:00 +7°C° 0 mm 3 m/S 751 mmHg 93%
    05:00 +9°C° 0 mm 3 m/S 751 mmHg 87%
    06:00 +10°C° 0 mm 4 m/S 751 mmHg 81%
    07:00 +11°C° 0 mm 4 m/S 751 mmHg 75%
    08:00 +13°C° 0 mm 5 m/S 751 mmHg 69%
    09:00 +14°C° 0 mm 6 m/S 751 mmHg 62%
    10:00 +15°C° 0 mm 6 m/S 750 mmHg 55%
    11:00 +16°C° 0 mm 6 m/S 750 mmHg 55%
    12:00 +16°C° 0 mm 6 m/S 750 mmHg 55%
    13:00 +17°C° 0 mm 6 m/S 750 mmHg 54%
    14:00 +17°C° 0.2 mm 6 m/S 749 mmHg 57%
    15:00 +16°C° 0.2 mm 6 m/S 748 mmHg 59%
    16:00 +16°C° 0.2 mm 6 m/S 748 mmHg 61%
    17:00 +15°C° 0.2 mm 5 m/S 748 mmHg 66%
    18:00 +14°C° 0.2 mm 4 m/S 748 mmHg 71%
    19:00 +13°C° 0.2 mm 4 m/S 747 mmHg 75%
    20:00 +12°C° 0 mm 3 m/S 747 mmHg 79%
    21:00 +11°C° 0 mm 3 m/S 747 mmHg 83%
    22:00 +10°C° 0 mm 3 m/S 747 mmHg 87%
    23:00 +9°C° 0 mm 3 m/S 747 mmHg 89%

    Morgen, 3 Juni, Mittwoch

    Zeit Temperatur Niederschläge Wind Luftdruck Luftfeuchtigkeit
    00:00 +9°C° 0 mm 3 m/S 746 mmHg 90%
    01:00 +8°C° 0 mm 3 m/S 746 mmHg 92%
    02:00 +8°C° 0 mm 3 m/S 746 mmHg 91%
    03:00 +8°C° 0 mm 3 m/S 746 mmHg 91%
    04:00 +7°C° 0 mm 3 m/S 745 mmHg 91%
    05:00 +9°C° 0.1 mm 3 m/S 745 mmHg 87%
    06:00 +10°C° 0.1 mm 3 m/S 745 mmHg 84%
    07:00 +11°C° 0.1 mm 3 m/S 745 mmHg 80%
    08:00 +11°C° 0.3 mm 3 m/S 745 mmHg 82%
    09:00 +10°C° 0.3 mm 3 m/S 745 mmHg 85%
    10:00 +10°C° 0.3 mm 3 m/S 744 mmHg 87%
    11:00 +11°C° 0.1 mm 3 m/S 744 mmHg 84%
    12:00 +12°C° 0.1 mm 3 m/S 744 mmHg 81%
    13:00 +13°C° 0.1 mm 3 m/S 744 mmHg 78%
    14:00 +14°C° 0.1 mm 4 m/S 743 mmHg 74%
    15:00 +15°C° 0.1 mm 4 m/S 743 mmHg 69%
    16:00 +17°C° 0.1 mm 4 m/S 743 mmHg 65%
    17:00 +16°C° 0.1 mm 3 m/S 743 mmHg 70%
    18:00 +14°C° 0.1 mm 3 m/S 743 mmHg 76%
    19:00 +14°C° 0.1 mm 2 m/S 742 mmHg 81%
    20:00 +13°C° 0 mm 2 m/S 742 mmHg 84%
    21:00 +12°C° 0 mm 2 m/S 742 mmHg 87%
    22:00 +10°C° 0 mm 2 m/S 742 mmHg 90%
    23:00 +9°C° 0 mm 2 m/S 742 mmHg 91%

    übermorgen, 4 Juni, Donnerstag

    Zeit Temperatur Niederschläge Wind Luftdruck Luftfeuchtigkeit
    00:00 +9°C° 0 mm 2 m/S 742 mmHg 92%
    01:00 +8°C° 0 mm 2 m/S 742 mmHg 94%
    02:00 +8°C° 0 mm 2 m/S 742 mmHg 94%
    03:00 +8°C° 0 mm 2 m/S 741 mmHg 94%
    04:00 +9°C° 0 mm 1 m/S 741 mmHg 94%
    05:00 +9°C° 0 mm 2 m/S 741 mmHg 89%
    06:00 +12°C° 0 mm 2 m/S 741 mmHg 84%
    07:00 +14°C° 0 mm 2 m/S 741 mmHg 79%
    08:00 +15°C° 0.1 mm 2 m/S 741 mmHg 73%
    09:00 +16°C° 0.1 mm 2 m/S 741 mmHg 67%
    10:00 +18°C° 0.1 mm 2 m/S 740 mmHg 61%
    11:00 +19°C° 0.1 mm 2 m/S 740 mmHg 57%
    12:00 +19°C° 0.1 mm 2 m/S 740 mmHg 54%
    13:00 +20°C° 0.1 mm 2 m/S 740 mmHg 51%
    14:00 +20°C° 0 mm 2 m/S 740 mmHg 51%
    15:00 +21°C° 0 mm 1 m/S 740 mmHg 50%
    16:00 +22°C° 0 mm 1 m/S 739 mmHg 50%
    17:00 +20°C° 0 mm 1 m/S 739 mmHg 55%
    18:00 +19°C° 0 mm 1 m/S 739 mmHg 60%
    19:00 +18°C° 0 mm 1 m/S 739 mmHg 65%
    20:00 +16°C° 0 mm 2 m/S 739 mmHg 67%
    21:00 +15°C° 0 mm 2 m/S 739 mmHg 68%
    22:00 +13°C° 0 mm 3 m/S 739 mmHg 70%
    23:00 +13°C° 0 mm 3 m/S 739 mmHg 74%

    5 Juni, Freitag

    Zeit Temperatur Niederschläge Wind Luftdruck Luftfeuchtigkeit
    00:00 +13°C° 0 mm 3 m/S 738 mmHg 78%
    01:00 +12°C° 0 mm 4 m/S 738 mmHg 82%
    02:00 +12°C° 0 mm 4 m/S 738 mmHg 84%
    03:00 +12°C° 0 mm 4 m/S 737 mmHg 85%
    04:00 +12°C° 0 mm 4 m/S 737 mmHg 87%
    05:00 +13°C° 0 mm 4 m/S 736 mmHg 86%
    06:00 +14°C° 0 mm 5 m/S 736 mmHg 86%
    07:00 +16°C° 0 mm 5 m/S 736 mmHg 85%
    08:00 +19°C° 0.1 mm 5 m/S 736 mmHg 78%
    09:00 +20°C° 0.1 mm 6 m/S 736 mmHg 72%
    10:00 +22°C° 0.1 mm 6 m/S 736 mmHg 65%
    11:00 +22°C° 0.3 mm 7 m/S 736 mmHg 67%
    12:00 +22°C° 0.3 mm 8 m/S 737 mmHg 68%
    13:00 +21°C° 0.3 mm 9 m/S 737 mmHg 69%
    14:00 +21°C° 0 mm 7 m/S 738 mmHg 69%
    15:00 +21°C° 0 mm 6 m/S 738 mmHg 68%
    16:00 +21°C° 0 mm 5 m/S 738 mmHg 67%
    17:00 +20°C° 0 mm 4 m/S 739 mmHg 72%
    18:00 +19°C° 0 mm 3 m/S 739 mmHg 76%
    19:00 +18°C° 0 mm 2 m/S 739 mmHg 80%
    20:00 +17°C° 0.2 mm 2 m/S 740 mmHg 83%
    21:00 +16°C° 0.2 mm 2 m/S 740 mmHg 86%
    22:00 +16°C° 0.2 mm 3 m/S 740 mmHg 90%
    23:00 +14°C° 2.6 mm 4 m/S 740 mmHg 91%

    6 Juni, Samstag

    Zeit Temperatur Niederschläge Wind Luftdruck Luftfeuchtigkeit
    00:00 +14°C° 2.6 mm 5 m/S 740 mmHg 93%
    01:00 +13°C° 2.6 mm 6 m/S 740 mmHg 95%
    02:00 +13°C° 2.1 mm 5 m/S 740 mmHg 95%
    03:00 +12°C° 2.1 mm 5 m/S 740 mmHg 95%
    04:00 +11°C° 2.1 mm 4 m/S 740 mmHg 94%
    05:00 +11°C° 0.4 mm 3 m/S 741 mmHg 93%
    06:00 +12°C° 0.4 mm 3 m/S 741 mmHg 92%
    07:00 +13°C° 0.4 mm 2 m/S 742 mmHg 91%
    08:00 +14°C° 0 mm 2 m/S 742 mmHg 83%
    09:00 +16°C° 0 mm 3 m/S 743 mmHg 75%
    10:00 +18°C° 0 mm 3 m/S 743 mmHg 67%
    11:00 +19°C° 0.1 mm 5 m/S 743 mmHg 63%
    12:00 +20°C° 0.1 mm 6 m/S 743 mmHg 59%
    13:00 +20°C° 0.1 mm 7 m/S 743 mmHg 55%
    14:00 +20°C° 0.1 mm 7 m/S 743 mmHg 56%
    15:00 +20°C° 0.1 mm 7 m/S 743 mmHg 57%
    16:00 +20°C° 0.1 mm 6 m/S 743 mmHg 58%
    17:00 +19°C° 0 mm 5 m/S 744 mmHg 63%
    18:00 +18°C° 0 mm 4 m/S 744 mmHg 67%
    19:00 +18°C° 0 mm 3 m/S 744 mmHg 71%
    20:00 +17°C° 0 mm 3 m/S 745 mmHg 75%
    21:00 +14°C° 0 mm 3 m/S 746 mmHg 78%
    22:00 +13°C° 0 mm 3 m/S 746 mmHg 81%
    23:00 +13°C° 0 mm 3 m/S 747 mmHg 82%

    7 Juni, Sonntag

    Zeit Temperatur Niederschläge Wind Luftdruck Luftfeuchtigkeit
    00:00 +13°C° 0 mm 3 m/S 747 mmHg 83%
    01:00 +12°C° 0 mm 3 m/S 747 mmHg 83%
    02:00 +12°C° 0 mm 3 m/S 747 mmHg 82%
    03:00 +14°C° 0 mm 2 m/S 748 mmHg 81%
    04:00 +14°C° 0 mm 2 m/S 748 mmHg 80%
    05:00 +14°C° 0 mm 3 m/S 748 mmHg 78%
    06:00 +16°C° 0 mm 3 m/S 748 mmHg 76%
    07:00 +18°C° 0 mm 3 m/S 749 mmHg 73%
    08:00 +18°C° 0 mm 3 m/S 749 mmHg 71%
    09:00 +19°C° 0 mm 3 m/S 749 mmHg 68%
    10:00 +20°C° 0 mm 4 m/S 749 mmHg 66%
    11:00 +21°C° 0 mm 3 m/S 749 mmHg 65%
    12:00 +21°C° 0 mm 3 m/S 749 mmHg 65%
    13:00 +21°C° 0 mm 3 m/S 749 mmHg 64%
    14:00 +22°C° 0.2 mm 3 m/S 749 mmHg 65%
    15:00 +22°C° 0.2 mm 3 m/S 749 mmHg 65%
    16:00 +22°C° 0.2 mm 3 m/S 749 mmHg 66%
    17:00 +21°C° 0.9 mm 2 m/S 749 mmHg 73%
    18:00 +21°C° 0.9 mm 1 m/S 749 mmHg 80%
    19:00 +19°C° 0.9 mm 1 m/S 749 mmHg 87%
    20:00 +19°C° 0.3 mm 1 m/S 749 mmHg 87%
    21:00 +19°C° 0.3 mm 1 m/S 749 mmHg 87%
    22:00 +17°C° 0.3 mm 2 m/S 749 mmHg 88%
    23:00 +17°C° 0.6 mm 2 m/S 749 mmHg 89%
    Mehr zeigen